[[{"header":{"parameterUnit":"m.s-1","parameterCategory":1,"la1":30.2991,"la2":30.254,"lo1":-89.0895,"lo2":-89.0444,"dy":0.0017,"dx":0.0017,"nx":28,"ny":28,"refTime":"2023-09-11T03:00:00:Z","depth":0,"parameterNumber":2,"parameterNumberName":"U-component_of_WINDS"},"data":[0,0,0,0,0,0,0,0,0,0,0,0,0,0,0,0,0,0,0,0,0,0,0,0,0,0,0,0,0,0,0,0,0,0,0,0,0,0,0,0,0,0,0,0,0,0,0,0,0,0,0,0,0,0,0,0,0,0,-0.9254,-0.9253,0,-0.9175,-0.9175,-0.9174,-0.9131,-0.9131,-0.9131,-0.9131,-0.905,-0.9048,-0.9046,0,0,0,0,0,0,0,0,0,0,0,0,0,-0.9368,-0.9366,-0.9254,-0.9253,-0.9252,-0.9176,-0.9175,-0.9173,-0.9131,-0.9131,-0.9131,-0.9131,-0.9051,-0.9048,-0.9046,0,0,0,0,0,0,0,0,0,0,0,0,0,-0.9307,-0.9365,-0.9254,-0.9222,-0.9218,-0.9176,-0.9174,-0.9173,-0.9131,-0.9131,-0.9131,-0.9131,-0.9052,-0.9049,-0.9045,-0.9029,0,0,-0.9036,-0.9035,0,0,0,0,0,0,0,0,-0.931,-0.9302,-0.9227,-0.9224,-0.922,-0.9163,-0.9185,-0.9125,-0.9131,-0.9164,-0.9131,-0.9131,-0.9088,-0.9082,-0.9067,-0.9025,-0.9022,-0.9036,-0.9034,-0.9033,-0.9032,0,0,0,0,0,0,0,-0.9314,-0.9306,-0.9223,-0.9226,-0.9222,-0.9211,-0.9203,-0.9173,-0.9128,-0.9161,-0.9158,-0.9149,-0.9086,-0.907,-0.9065,-0.9021,-0.9036,-0.9033,-0.9031,-0.903,-0.8964,-0.8964,0,0,0,0,0,0,-0.9324,-0.9309,-0.9225,-0.922,-0.9265,-0.9209,-0.92,-0.9181,-0.9128,-0.912,-0.915,-0.9148,-0.9076,-0.9069,-0.9062,-0.904,-0.9033,-0.903,-0.9028,-0.8964,-0.8964,-0.8964,0,0,0,0,0,0,-0.9326,-0.9317,-0.9228,-0.9264,-0.9252,-0.9208,-0.9187,-0.918,-0.9164,-0.9119,-0.9111,-0.9142,-0.9075,-0.9066,-0.9038,-0.9037,-0.9028,-0.9025,-0.8963,-0.8964,-0.8964,-0.8996,0,0,0,0,0,0,-0.933,-0.9318,-0.9311,-0.9264,-0.925,-0.9206,-0.9187,-0.9178,-0.9159,-0.9156,-0.911,-0.9102,-0.9075,-0.9043,-0.9035,-0.9032,-0.9023,-0.8963,-0.8963,-0.8964,-0.8995,-0.8998,-0.9,0,0,0,0,0,-0.9334,-0.9322,-0.9311,-0.9301,-0.924,-0.9206,-0.9198,-0.9166,-0.9159,-0.9152,-0.9124,-0.9104,-0.9039,-0.9041,-0.9031,-0.9028,-0.8963,-0.8963,-0.8964,-0.8994,-0.8997,-0.9,0,0,0,0,0,0,-0.9369,-0.9316,-0.9302,-0.9275,-0.9245,-0.9198,-0.9188,-0.917,-0.9141,-0.9139,-0.9101,-0.9091,-0.9067,-0.9044,-0.9048,-0.901,-0.8999,-0.8997,-0.9025,-0.9028,-0.903,-0.9035,-0.902,0,0,0,0,0,-0.9374,-0.935,-0.9305,-0.9285,-0.9271,-0.9233,-0.9216,-0.9195,-0.9162,-0.9149,-0.9118,-0.9088,-0.906,-0.9043,-0.9015,-0.8992,-0.8982,-0.8985,-0.8988,-0.899,-0.8988,-0.8976,-0.8977,-0.8964,-0.8964,-0.8964,0,0,-0.9383,-0.9351,-0.9338,-0.9292,-0.9266,-0.9242,-0.9222,-0.9197,-0.918,-0.9145,-0.9117,-0.9094,-0.9057,-0.9032,-0.9019,-0.9012,-0.899,-0.899,-0.8992,-0.8989,-0.8976,-0.8978,-0.8979,-0.8965,-0.8965,-0.8965,0,0,-0.9388,-0.9361,-0.9342,-0.9318,-0.928,-0.9255,-0.9251,-0.9207,-0.919,-0.9162,-0.9136,-0.9115,-0.9068,-0.9043,-0.9025,-0.9023,-0.9004,-0.9016,-0.9027,-0.9015,-0.9016,-0.9017,-0.9017,-0.9017,-0.9015,-0.9015,-0.9015,0,-0.9404,-0.9367,-0.9335,-0.9312,-0.9293,-0.9263,-0.9244,-0.9222,-0.9176,-0.9164,-0.9158,-0.91,-0.9073,-0.9042,-0.9042,-0.9028,-0.9023,-0.902,-0.9019,-0.9019,-0.9019,-0.9019,-0.9019,-0.9016,-0.9016,-0.9016,-0.9016,0,-0.9389,-0.9364,-0.9354,-0.9312,-0.9292,-0.9271,-0.9237,-0.9221,-0.9202,-0.9178,-0.915,-0.9117,-0.9083,-0.9074,-0.9055,-0.9041,-0.9038,-0.9026,-0.9014,-0.9023,-0.9022,-0.9021,-0.9019,-0.9018,-0.9018,-0.9017,0,0,-0.9411,-0.9354,-0.9351,-0.9332,-0.9289,-0.9269,-0.9249,-0.9216,-0.9203,-0.9174,-0.9155,-0.9118,-0.9107,-0.9086,-0.9064,-0.9054,-0.9057,-0.9043,-0.9042,-0.9047,-0.904,-0.905,-0.905,-0.9044,-0.9044,-0.9044,-0.9044,0,-0.941,-0.937,-0.9342,-0.9314,-0.9291,-0.9263,-0.9245,-0.9217,-0.9195,-0.9173,-0.9148,-0.9122,-0.9109,-0.9097,-0.9086,-0.9059,-0.9055,-0.9058,-0.9027,-0.9026,-0.9037,-0.9049,-0.9059,-0.906,-0.9043,-0.9043,-0.9043,0,-0.9402,-0.9375,-0.9344,-0.9306,-0.9295,-0.9279,-0.9248,-0.9227,-0.9196,-0.918,-0.9159,-0.9137,-0.9114,-0.9106,-0.9075,-0.9078,-0.9064,-0.9049,-0.9049,-0.9044,-0.9034,-0.9045,-0.9059,-0.9059,-0.9042,-0.9042,-0.9042,0,-0.9421,-0.9377,-0.9354,-0.9339,-0.9293,-0.9283,-0.9263,-0.9232,-0.9215,-0.9188,-0.9176,-0.9147,-0.9131,-0.9109,-0.9081,-0.9077,-0.9053,-0.9042,-0.904,-0.9041,-0.9035,-0.9035,-0.9047,-0.9027,-0.9027,-0.9027,-0.9027,0,-0.9422,-0.9405,-0.9362,-0.9347,-0.9328,-0.9296,-0.9278,-0.9256,-0.9229,-0.921,-0.9184,-0.9167,-0.9131,-0.911,-0.9088,-0.9066,-0.9059,-0.9046,-0.904,-0.9048,-0.905,-0.9037,-0.9037,-0.9027,-0.9027,-0.9027,-0.9027,0,-0.944,-0.9411,-0.9383,-0.9343,-0.9333,-0.932,-0.9286,-0.9271,-0.9248,-0.9225,-0.9218,-0.9182,-0.9156,-0.9126,-0.909,-0.9075,-0.9056,-0.9047,-0.9066,-0.9063,-0.9063,-0.9063,-0.9066,-0.9065,-0.9047,-0.9047,-0.9047,0,-0.9442,-0.9428,-0.9387,-0.9373,-0.9354,-0.9332,-0.9315,-0.9284,-0.9267,-0.9232,-0.9222,-0.9195,-0.9171,-0.9131,-0.9102,-0.9075,-0.9065,-0.9069,-0.9061,-0.907,-0.9065,-0.9067,-0.9065,-0.907,-0.907,-0.9071,-0.9071,0,-0.9449,-0.9436,-0.9412,-0.9384,-0.9364,-0.934,-0.9315,-0.9306,-0.927,-0.9253,-0.9227,-0.9208,-0.9173,-0.9146,-0.9116,-0.9096,-0.9078,-0.9074,-0.9072,-0.9079,-0.9091,-0.9085,-0.9071,-0.9074,-0.9073,-0.9073,-0.9073,-0.9073,-0.9458,-0.9445,-0.9415,-0.939,-0.9368,-0.9346,-0.9331,-0.9307,-0.9285,-0.9254,-0.9237,-0.9212,-0.9183,-0.914,-0.9122,-0.9102,-0.9095,-0.9093,-0.9092,-0.9091,-0.9094,-0.9095,-0.9096,-0.9096,-0.9096,-0.9096,-0.9096,0,-0.9464,-0.9444,-0.9421,-0.9388,-0.9369,-0.9354,-0.9327,-0.9312,-0.9289,-0.9264,-0.9242,-0.9213,-0.9187,-0.9157,-0.913,-0.912,-0.9111,-0.9114,-0.9114,-0.911,-0.9101,-0.9105,-0.9122,-0.9122,-0.9122,-0.9122,-0.9122,-0.9122,-0.9464,-0.9442,-0.9426,-0.9393,-0.9373,-0.9347,-0.9333,-0.9313,-0.9293,-0.9262,-0.9241,-0.9222,-0.9195,-0.9166,-0.9143,-0.9135,-0.9126,-0.9131,-0.9121,-0.9113,-0.911,-0.9108,-0.9112,-0.913,-0.913,-0.9131,-0.9132,-0.9132]},{"header":{"parameterUnit":"m.s-1","parameterCategory":1,"la1":30.2991,"la2":30.254,"lo1":-89.0895,"lo2":-89.0444,"dy":0.0017,"dx":0.0017,"nx":28,"ny":28,"refTime":"2023-09-11T03:00:00:Z","depth":0,"parameterNumber":3,"parameterNumberName":"V-component_of_WINDS"},"data":[0,0,0,0,0,0,0,0,0,0,0,0,0,0,0,0,0,0,0,0,0,0,0,0,0,0,0,0,0,0,0,0,0,0,0,0,0,0,0,0,0,0,0,0,0,0,0,0,0,0,0,0,0,0,0,0,0,0,3.2524,3.2524,0,3.2535,3.2535,3.2535,3.2586,3.2587,3.2589,3.259,3.2596,3.2595,3.2595,0,0,0,0,0,0,0,0,0,0,0,0,0,3.2544,3.2543,3.2524,3.2524,3.2524,3.2535,3.2535,3.2535,3.2586,3.2588,3.2589,3.259,3.2597,3.2596,3.2594,0,0,0,0,0,0,0,0,0,0,0,0,0,3.2543,3.2543,3.2524,3.2551,3.2554,3.2535,3.2535,3.2535,3.2586,3.2588,3.2589,3.2591,3.2597,3.2596,3.2594,3.2549,0,0,3.259,3.2589,0,0,0,0,0,0,0,0,3.2543,3.2542,3.2547,3.2549,3.2552,3.2561,3.2545,3.254,3.2585,3.2573,3.259,3.2592,3.2583,3.2583,3.2581,3.2549,3.2549,3.259,3.2589,3.2588,3.2588,0,0,0,0,0,0,0,3.2543,3.2542,3.2528,3.2547,3.255,3.2562,3.2563,3.2544,3.2568,3.2575,3.2578,3.2579,3.2585,3.2582,3.2581,3.255,3.259,3.2589,3.2588,3.2587,3.2482,3.248,0,0,0,0,0,0,3.254,3.2542,3.2528,3.2529,3.2552,3.256,3.2562,3.2556,3.2568,3.2572,3.2578,3.2582,3.2583,3.2583,3.2582,3.2529,3.2588,3.2587,3.2586,3.2483,3.2481,3.2479,0,0,0,0,0,0,3.254,3.2538,3.2527,3.2536,3.2536,3.2558,3.2551,3.2556,3.2553,3.257,3.2574,3.2571,3.2585,3.2584,3.2557,3.253,3.2586,3.2585,3.2486,3.2483,3.248,3.2424,0,0,0,0,0,0,3.254,3.2538,3.2522,3.2536,3.2535,3.2504,3.2549,3.2554,3.2551,3.2556,3.2565,3.2568,3.2586,3.2559,3.2556,3.2529,3.2584,3.2488,3.2484,3.2481,3.2428,3.242,3.2412,0,0,0,0,0,3.2541,3.2504,3.252,3.2519,3.2515,3.2502,3.2502,3.2524,3.2549,3.2532,3.2543,3.2568,3.2534,3.2556,3.2552,3.2525,3.249,3.2486,3.2481,3.2432,3.2421,3.2412,0,0,0,0,0,0,3.2485,3.2507,3.2525,3.2492,3.2495,3.2511,3.249,3.2512,3.2507,3.2512,3.254,3.2541,3.251,3.2515,3.2539,3.2482,3.2516,3.2511,3.248,3.247,3.2462,3.2461,3.2583,0,0,0,0,0,3.2469,3.2458,3.2477,3.2446,3.2447,3.2468,3.2463,3.2481,3.2484,3.2485,3.2494,3.2496,3.2486,3.2478,3.247,3.243,3.2432,3.2409,3.2401,3.2394,3.2389,3.2369,3.2359,3.2465,3.2465,3.2465,0,0,3.2435,3.2446,3.2437,3.2435,3.2439,3.2426,3.2469,3.2452,3.2442,3.2482,3.2458,3.2465,3.2468,3.2435,3.2421,3.2438,3.2361,3.2389,3.2383,3.2382,3.2363,3.2353,3.2344,3.2462,3.2462,3.2463,0,0,3.2367,3.2374,3.235,3.2354,3.236,3.2375,3.2369,3.2382,3.2388,3.2365,3.2395,3.2383,3.2364,3.2366,3.2364,3.2297,3.232,3.2294,3.2251,3.223,3.2222,3.2215,3.2191,3.2182,3.2289,3.2289,3.2289,0,3.2324,3.2306,3.2333,3.2316,3.2314,3.2351,3.2326,3.2328,3.2331,3.2328,3.2348,3.2327,3.2331,3.2299,3.2283,3.228,3.2274,3.2293,3.2221,3.2214,3.2208,3.2185,3.2176,3.2285,3.2286,3.2286,3.2286,0,3.2253,3.224,3.2219,3.2223,3.2218,3.2196,3.222,3.2212,3.223,3.2242,3.2218,3.2225,3.2219,3.2213,3.2229,3.2182,3.2193,3.2217,3.2251,3.2194,3.2173,3.2165,3.2281,3.2282,3.2283,3.2284,0,0,3.2148,3.2169,3.2161,3.2163,3.2174,3.2164,3.2143,3.2139,3.2132,3.2132,3.2116,3.21,3.2122,3.212,3.2138,3.212,3.2066,3.2146,3.2146,3.213,3.2015,3.1997,3.1986,3.2082,3.208,3.2079,3.2014,0,3.2083,3.2051,3.2076,3.2039,3.2027,3.2063,3.2045,3.2049,3.2061,3.2051,3.2063,3.2052,3.2082,3.2081,3.2065,3.2076,3.2043,3.2081,3.2065,3.2064,3.2063,3.1975,3.1956,3.1895,3.2006,3.2005,3.2004,0,3.2003,3.2002,3.1964,3.1978,3.1974,3.1958,3.1956,3.1947,3.1952,3.1962,3.196,3.1982,3.1963,3.1997,3.197,3.1995,3.199,3.1995,3.1993,3.1992,3.203,3.1971,3.1876,3.1866,3.1992,3.1993,3.1993,0,3.193,3.1919,3.1896,3.1897,3.1912,3.19,3.1906,3.1913,3.1909,3.1907,3.1905,3.19,3.1897,3.1892,3.1912,3.1936,3.1882,3.1918,3.1888,3.1888,3.1875,3.1875,3.1776,3.1872,3.1872,3.1872,3.1872,0,3.1854,3.183,3.1863,3.1849,3.1822,3.185,3.1823,3.1832,3.1838,3.1825,3.1856,3.1843,3.187,3.186,3.1875,3.185,3.1848,3.1855,3.1859,3.1852,3.1851,3.1848,3.1853,3.187,3.187,3.1871,3.1871,0,3.1768,3.179,3.1766,3.1784,3.1788,3.1767,3.1782,3.1768,3.1782,3.1765,3.1763,3.1784,3.1773,3.1793,3.1784,3.1795,3.176,3.1771,3.1758,3.1761,3.173,3.1732,3.1625,3.1613,3.1717,3.1716,3.1715,0,3.1718,3.17,3.1716,3.1711,3.1715,3.1705,3.1702,3.1729,3.1724,3.1729,3.1715,3.1707,3.1702,3.1683,3.1697,3.169,3.1701,3.1664,3.17,3.1694,3.17,3.1701,3.1699,3.1656,3.1655,3.1654,3.1653,0,3.1627,3.1639,3.1634,3.1632,3.1628,3.1627,3.1629,3.1622,3.1651,3.1643,3.1634,3.163,3.1622,3.1614,3.1611,3.1615,3.1638,3.1642,3.1635,3.1627,3.162,3.1623,3.1737,3.1644,3.1645,3.1646,3.1646,3.1646,3.1557,3.1543,3.1553,3.1546,3.155,3.1551,3.154,3.1553,3.1546,3.1543,3.1559,3.1545,3.1551,3.155,3.1552,3.1542,3.1558,3.1547,3.1544,3.1541,3.1536,3.1622,3.1541,3.1541,3.1542,3.1542,3.1542,0,3.1467,3.1476,3.1469,3.1471,3.1466,3.149,3.1494,3.1487,3.1475,3.148,3.1475,3.1464,3.1456,3.1469,3.1464,3.1452,3.1463,3.145,3.1451,3.1451,3.1522,3.1529,3.1442,3.1442,3.1442,3.1442,3.1442,3.1442,3.142,3.1398,3.1411,3.1391,3.1399,3.1388,3.1388,3.1389,3.1392,3.1379,3.1373,3.1383,3.1391,3.1386,3.138,3.1384,3.138,3.1363,3.1371,3.1437,3.1446,3.1456,3.1462,3.1362,3.1362,3.1301,3.1301,3.13]}]]